This demonstration page uses our WeatherBlox Daily Observations layout. Learn more.

41.86663, -103.66717

Hourly Observations for December 12, 2019

Temp ( °F °C ) Dew Point ( °F °C ) Humidity (%) Winds ( mph kmh ) Pressure ( in mb ) Visibility ( mi km ) Precip ( " mm )
12:53 am 00:53 Clear 32 0 24 -4.4 73 73 NW 8 13 30 1016 10 16.0934 0 0
1:53 am 01:53 Clear 29 -1.7 23 -5 78 78 WNW 6 9 30.03 1017 10 16.0934 0 0
2:53 am 02:53 Clear 28 -2.2 23 -5 81 81 Calm 30.04 1017 10 16.0934 0 0
3:53 am 03:53 Clear 28 -2.2 24 -4.4 85 85 N 3 6 30.05 1018 10 16.0934 0 0
4:53 am 04:53 Clear 28 -2.2 24 -4.4 85 85 NNW 6 9 30.03 1017 10 16.0934 0 0
5:53 am 05:53 Clear 28 -2.2 24 -4.4 85 85 WNW 3 6 30.03 1017 10 16.0934 0 0
6:53 am 06:53 Clear 28 -2.2 24 -4.4 85 85 Calm 30.03 1017 10 16.0934 0 0
7:53 am 07:53 Mostly Cloudy 30 -1.1 25 -3.9 82 82 NNE 6 9 30.02 1017 10 16.0934 0 0
8:53 am 08:53 Mostly Sunny 32 0 27 -2.8 82 82 Calm 30.02 1017 10 16.0934 0 0
9:53 am 09:53 Sunny 39 3.9 29 -1.7 67 67 W 5 7 30 1016 10 16.0934 0 0
10:53 am 10:53 Sunny 45 7.2 31 -0.6 58 58 Calm 29.96 1015 10 16.0934 0 0
11:53 am 11:53 Sunny 50 10 30 -1.1 46 46 W 18 30 29.92 1013 10 16.0934 0 0
12:53 pm 12:53 Sunny 51 10.6 30 -1.1 44 44 W 15 24 29.89 1012 10 16.0934 0 0
1:53 pm 13:53 Sunny 52 11.1 30 -1.1 43 43 undefined N/A 29.88 1012 10 16.0934 0 0
2:53 pm 14:53 Sunny 51 10.6 30 -1.1 44 44 W 10 17 29.88 1012 10 16.0934 0 0
3:53 pm 15:53 Sunny 48 8.9 30 -1.1 50 50 W 10 17 29.9 1013 10 16.0934 0 0
4:53 pm 16:53 Clear 43 6.1 29 -1.7 58 58 WNW 7 11 29.92 1013 10 16.0934 0 0
5:53 pm 17:53 Mostly Clear 37 2.8 29 -1.7 73 73 NNW 6 9 29.94 1014 10 16.0934 0 0
6:53 pm 18:53 Clear 35 1.7 28 -2.2 76 76 Calm 29.93 1014 10 16.0934 0 0
7:53 pm 19:53 Mostly Clear 34 1.1 28 -2.2 79 79 Calm 29.92 1013 10 16.0934 0 0
8:53 pm 20:53 Mostly Cloudy 39 3.9 32 0 76 76 NNW 7 11 29.89 1012 10 16.0934 0 0
9:53 pm 21:53 Cloudy with Light Rain 41 5 33 0.6 73 73 NW 9 15 29.88 1012 10 16.0934 0.001 0.001
10:53 pm 22:53 Cloudy with Light Rain 42 5.6 35 1.7 76 76 NW 18 30 29.88 1012 10 16.0934 0.001 0.001
11:53 pm 23:53 Clear 36 2.2 33 0.6 89 89 WNW 8 13 29.86 1011 10 16.0934 0.001 0.001

Powered by AerisWeather